Halifax Stanfield International Airport

Airport
ICAO code: 
CYHZ
IATA Code: 
YHZ
Summary
ICAO Region: 
NAM
Territory: 
Location: 
Halifax, Nova Scotia,
Serving: 
Halifax
Elevation: 
477 ft
Coordinates: 
Aerial View: 
44° 52' 49.743" N, 63° 30' 50.276" W
Metar
Observation
CYHZ 270200Z 35014KT 15SM FEW041 M14/M17 A3019 RMK SC1 SLP236
Station
Halifax International Airport
Date/Time
2022-01-27 02:00:00
Wind direction
350°
Wind speed
14 kts
Lowest cloud amount
few clouds
Temperature
-14°C
Dew point
-17°C
Humidity
77%
Weather condition
n/a

Description

Officially named Halifax International Airport, serves Halifax and environs, Nova Scotia.

Climatology

Humid Continental climate (Köppen climate classification Dfb) - Variable weather patterns and a large seasonal temperature variance. Summers are often warm and humid with frequent thunderstorms and winters can be very cold with frequent snowfall and persistent snow cover.

Runways

Designator Length Width Surface Rops
14/32 2347 61 ASP Yes/Yes
5/23 2682 61 PEM Yes/Yes
Airport map: 
Aerial View: 

SKYbrary Partners:

Safety knowledge contributed by: